DW6352 Weather Reports


Display with metric or nautical units.
time (UTC)temp
F
wind
direction
speed
MPH
gust
MPH
rain 1hr
in
rain 24hr
in
rain mn
in
humidity
%
barometer
mb
20260506043057 36 343 2.0 5.0 0.00 0.00 0.00 61 1013.4
20260506041551 37 351 2.0 9.0 0.00 0.00 0.00 60 1013.2
20260506040051 37 327 3.0 9.0 0.00 0.00 0.00 60 1013.2
20260506034609 38 330 3.0 10.0 0.00 0.00 0.00 60 1012.9
20260506033049 38 321 4.0 10.0 0.00 0.00 0.00 59 1012.9
20260506031552 39 351 3.0 6.0 0.00 0.00 0.00 58 1012.9
20260506030047 39 16 2.0 9.0 0.00 0.00 0.00 57 1012.8
20260506024551 40 347 5.0 11.0 0.00 0.00 0.00 55 1012.7
20260506023054 40 351 5.0 12.0 0.00 0.00 0.00 54 1012.5
20260506021543 41 329 7.0 12.0 0.00 0.00 0.00 53 1012.4
20260506020041 42 338 8.0 17.0 0.00 0.00 0.00 50 1012.1
20260506014538 42 292 7.0 14.0 0.00 0.00 0.00 47 1011.8
20260506013038 42 300 8.0 17.0 0.00 0.00 0.00 47 1011.6
20260506011542 43 342 13.0 17.0 0.00 0.00 0.00 47 1011.4
20260506010050 43 283 9.0 15.0 0.00 0.00 0.00 47 1011.2
20260506004532 43 300 8.0 18.0 0.00 0.00 0.00 46 1011.1
20260506003032 44 320 7.0 16.0 0.00 0.00 0.00 46 1010.9
20260506001531 44 300 9.0 23.0 0.00 0.00 0.00 45 1010.9
20260506000028 46 318 11.0 17.0 0.00 0.00 0.00 44 1010.6
20260505234527 46 290 13.0 21.0 0.00 0.00 0.00 43 1010.5
20260505233026 47 325 11.0 19.0 0.00 0.00 0.00 42 1010.3
20260505231526 47 325 7.0 17.0 0.00 0.00 0.00 43 1010.2
20260505230037 47 266 9.0 14.0 0.00 0.00 0.00 43 1010.2
20260505224526 47 317 10.0 22.0 0.00 0.00 0.00 41 1010.1
20260505223028 48 250 11.0 19.0 0.00 0.00 0.00 41 1009.9
20260505221525 47 252 9.0 18.0 0.00 0.00 0.00 42 1010.0
20260505220027 47 307 7.0 18.0 0.00 0.00 0.00 41 1010.0
20260505214524 47 304 9.0 18.0 0.00 0.00 0.00 39 1010.0
20260505213027 48 246 10.0 20.0 0.00 0.00 0.00 42 1010.0
20260505211523 47 286 8.0 17.0 0.00 0.00 0.00 41 1010.0
20260505210022 48 248 12.0 21.0 0.00 0.00 0.00 41 1010.1
20260505204522 47 308 12.0 19.0 0.00 0.00 0.00 40 1010.1
20260505203120 47 310 13.0 21.0 0.00 0.00 0.00 41 1010.2
20260505201519 46 249 10.0 20.0 0.00 0.00 0.00 43 1010.2
20260505200017 47 282 7.0 20.0 0.00 0.00 0.00 42 1010.3
20260505194516 46 296 10.0 19.0 0.00 0.00 0.00 45 1010.3
20260505193015 46 252 9.0 19.0 0.00 0.00 0.00 43 1010.2
20260505191514 46 261 10.0 18.0 0.00 0.00 0.00 43 1010.3
20260505190024 46 306 7.0 15.0 0.00 0.00 0.00 43 1010.3
20260505184514 46 273 11.0 20.0 0.00 0.00 0.00 43 1010.3
20260505183013 45 291 10.0 23.0 0.00 0.00 0.00 43 1010.3
20260505181512 46 309 13.0 22.0 0.00 0.00 0.00 44 1010.3
20260505180010 45 236 9.0 15.0 0.00 0.00 0.00 44 1010.2
20260505174508 44 279 12.0 19.0 0.00 0.00 0.00 43 1010.3
20260505173008 44 288 11.0 19.0 0.00 0.00 0.00 45 1010.4
20260505171508 44 323 8.0 21.0 0.00 0.00 0.00 46 1010.3
20260505170014 44 309 9.0 19.0 0.00 0.00 0.00 46 1010.4
20260505164506 44 315 12.0 21.0 0.00 0.00 0.00 48 1010.2
20260505163009 43 260 10.0 22.0 0.00 0.00 0.00 47 1010.2
20260505161502 43 320 9.0 21.0 0.00 0.00 0.00 49 1010.2
20260505153056 41 332 13.0 19.0 0.00 0.00 0.00 53 1010.0
20260505151611 40 298 9.0 21.0 0.00 0.00 0.00 52 1010.0
20260505124532 36 288 8.0 17.0 0.00 0.00 0.00 54 1008.7
20260505123028 36 289 9.0 15.0 0.00 0.00 0.00 56 1008.5
20260505121528 35 291 9.0 15.0 0.00 0.00 0.00 58 1008.4
20260505120048 34 288 9.0 14.0 0.00 0.00 0.00 60 1008.1
20260505114515 34 315 8.0 14.0 0.00 0.00 0.00 62 1007.8
20260505113013 34 295 7.0 15.0 0.00 0.00 0.00 64 1007.7
20260505111509 34 284 7.0 15.0 0.00 0.00 0.00 65 1007.6
20260505101600 35 277 5.0 12.0 0.00 0.00 0.00 66 1006.9
20260505100057 35 288 7.0 10.0 0.00 0.00 0.00 66 1007.0
20260505094554 35 288 5.0 12.0 0.00 0.00 0.00 66 1006.9
20260505093054 36 293 6.0 14.0 0.00 0.00 0.00 66 1006.8
20260505091548 36 302 7.0 16.0 0.00 0.00 0.00 66 1006.6
20260505090050 37 312 7.0 14.0 0.00 0.00 0.00 66 1006.4
20260505084544 37 303 8.0 14.0 0.00 0.00 0.00 65 1006.2
20260505083041 37 270 9.0 14.0 0.00 0.00 0.00 65 1006.0
20260505081540 37 296 6.0 13.0 0.00 0.00 0.00 65 1005.8
20260505080038 38 267 6.0 12.0 0.00 0.00 0.00 64 1005.8
20260505074533 38 283 6.0 12.0 0.00 0.00 0.00 64 1005.7
20260505073046 38 304 6.0 12.0 0.00 0.00 0.00 63 1005.7
20260505071530 38 288 5.0 14.0 0.00 0.00 0.00 62 1005.6
20260505070028 39 312 5.0 15.0 0.00 0.00 0.00 61 1005.5
20260505064537 39 315 4.0 10.0 0.00 0.00 0.00 60 1005.5
20260505063023 39 244 3.0 9.0 0.00 0.00 0.00 60 1005.3
20260505061530 40 238 4.0 10.0 0.00 0.00 0.00 58 1005.3
20260505060017 40 336 5.0 11.0 0.00 0.00 0.00 58 1005.2
20260505054514 41 280 6.0 12.0 0.00 0.00 0.00 57 1005.1
20260505053011 41 236 5.0 12.0 0.00 0.00 0.00 56 1004.8
20260505051509 42 247 5.0 11.0 0.00 0.00 0.00 55 1004.7